{"data":{"norad_id":66684,"intl_designator":"2025-276U","name":"MICE-1","alt_names":[],"object_type":"PAYLOAD","status":"ACTIVE","operator":null,"country":"GREC","launch_date":"2025-11-28","launch_site_code":"AFWTR","launch_vehicle":null,"mission":null,"orbit_class":"UNKNOWN","rcs_meters":null,"size_class":null,"mass_kg":null,"dimensions":null,"purposes":[],"wikipedia_slug":null,"has_3d_model":false,"image_url":null,"decayed_at":null,"tle_current":{"epoch":"2026-05-24T15:55:23.409696Z","epoch_age_seconds":97508,"freshness":"FRESH","line1":"1 66684U 25276U   26144.66346539  .00003071  00000+0  14998-3 0  9995","line2":"2 66684  97.4275 218.6863 0007091  81.2318 278.9719 15.18988658 26842","mean_motion":15.18988658,"eccentricity":0.0007091,"inclination_deg":97.4275,"raan_deg":218.6863,"arg_perigee_deg":81.2318,"mean_anomaly_deg":278.9719,"bstar":0.00014998,"rev_number":2684,"period_min":94.799917854291,"perigee_km":504.01224602647,"apogee_km":513.7794360016,"semimajor_km":6887.032841014,"source":"CELESTRAK","updated_at":"2026-05-25T13:38:06.411233Z"}}}